Year,Month,Day,Hour,Minute,Value (Times are PST for barometer in hPa)
2010,04,27,00,00,991.64
2010,04,27,00,01,991.64
2010,04,27,00,02,991.64
2010,04,27,00,03,991.64
2010,04,27,00,04,991.64
2010,04,27,00,05,991.64
2010,04,27,00,06,991.64
2010,04,27,00,07,991.64
2010,04,27,00,08,991.64
2010,04,27,00,09,991.64
2010,04,27,00,10,991.64
2010,04,27,00,11,991.64
2010,04,27,00,12,991.64
2010,04,27,00,13,991.64
2010,04,27,00,14,991.62
2010,04,27,00,15,991.23
2010,04,27,00,16,991.23
2010,04,27,00,17,991.23
2010,04,27,00,18,991.23
2010,04,27,00,19,991.23
2010,04,27,00,20,991.23
2010,04,27,00,21,991.23
2010,04,27,00,22,991.23
2010,04,27,00,23,991.23
2010,04,27,00,24,991.23
2010,04,27,00,25,991.23
2010,04,27,00,26,991.23
2010,04,27,00,27,991.23
2010,04,27,00,28,991.23
2010,04,27,00,29,991.23
2010,04,27,00,30,990.65
2010,04,27,00,31,990.65
2010,04,27,00,32,990.65
2010,04,27,00,33,990.65
2010,04,27,00,34,990.65
2010,04,27,00,35,990.65
2010,04,27,00,36,990.65
2010,04,27,00,37,990.65
2010,04,27,00,38,990.65
2010,04,27,00,39,990.65
2010,04,27,00,40,990.65
2010,04,27,00,41,990.65
2010,04,27,00,42,990.65
2010,04,27,00,43,990.65
2010,04,27,00,44,990.65
2010,04,27,00,45,990.62
2010,04,27,00,46,990.62
2010,04,27,00,47,990.62
2010,04,27,00,48,990.62
2010,04,27,00,49,990.62
2010,04,27,00,50,990.62
2010,04,27,00,51,990.62
2010,04,27,00,52,990.62
2010,04,27,00,53,990.62
2010,04,27,00,54,990.62
2010,04,27,00,55,990.62
2010,04,27,00,56,990.62
2010,04,27,00,57,990.62
2010,04,27,00,58,990.62
2010,04,27,00,59,990.62
2010,04,27,01,00,990.38
2010,04,27,01,01,990.38
2010,04,27,01,02,990.38
2010,04,27,01,03,990.38
2010,04,27,01,04,990.38
2010,04,27,01,05,990.38
2010,04,27,01,06,990.38
2010,04,27,01,07,990.38
2010,04,27,01,08,990.38
2010,04,27,01,09,990.38
2010,04,27,01,10,990.38
2010,04,27,01,11,990.38
2010,04,27,01,12,990.38
2010,04,27,01,13,990.38
2010,04,27,01,14,990.38
2010,04,27,01,15,990.32
2010,04,27,01,16,990.32
2010,04,27,01,17,990.32
2010,04,27,01,18,990.32
2010,04,27,01,19,990.32
2010,04,27,01,20,990.32
2010,04,27,01,21,990.32
2010,04,27,01,22,990.32
2010,04,27,01,23,990.32
2010,04,27,01,24,990.32
2010,04,27,01,25,990.32
2010,04,27,01,26,990.32
2010,04,27,01,27,990.32
2010,04,27,01,28,990.32
2010,04,27,01,29,990.32
2010,04,27,01,30,990.08
2010,04,27,01,31,990.08
2010,04,27,01,32,990.08
2010,04,27,01,33,990.08
2010,04,27,01,34,990.08
2010,04,27,01,35,990.08
2010,04,27,01,36,990.08
2010,04,27,01,37,990.08
2010,04,27,01,38,990.08
2010,04,27,01,39,990.08
2010,04,27,01,40,990.08
2010,04,27,01,41,990.08
2010,04,27,01,42,990.08
2010,04,27,01,43,990.08
2010,04,27,01,44,990.08
2010,04,27,01,45,990.08
2010,04,27,01,46,990.08
2010,04,27,01,47,990.08
2010,04,27,01,48,990.08
2010,04,27,01,49,990.08
2010,04,27,01,50,990.08
2010,04,27,01,51,990.08
2010,04,27,01,52,990.08
2010,04,27,01,53,990.08
2010,04,27,01,54,990.08
2010,04,27,01,55,990.08
2010,04,27,01,56,990.08
2010,04,27,01,57,990.08
2010,04,27,01,58,990.08
2010,04,27,01,59,990.08
2010,04,27,02,00,990.08
2010,04,27,02,01,990.08
2010,04,27,02,02,990.08
2010,04,27,02,03,990.08
2010,04,27,02,04,990.08
2010,04,27,02,05,990.08
2010,04,27,02,06,990.08
2010,04,27,02,07,990.08
2010,04,27,02,08,990.08
2010,04,27,02,09,990.08
2010,04,27,02,10,990.08
2010,04,27,02,11,990.08
2010,04,27,02,12,990.08
2010,04,27,02,13,990.08
2010,04,27,02,14,990.08
2010,04,27,02,15,990.08
2010,04,27,02,16,990.08
2010,04,27,02,17,990.08
2010,04,27,02,18,990.08
2010,04,27,02,19,990.08
2010,04,27,02,20,990.08
2010,04,27,02,21,990.08
2010,04,27,02,22,990.08
2010,04,27,02,23,990.08
2010,04,27,02,24,990.08
2010,04,27,02,25,990.08
2010,04,27,02,26,990.08
2010,04,27,02,27,990.08
2010,04,27,02,28,990.08
2010,04,27,02,29,990.08
2010,04,27,02,30,990.11
2010,04,27,02,31,990.11
2010,04,27,02,32,990.11
2010,04,27,02,33,990.11
2010,04,27,02,34,990.11
2010,04,27,02,35,990.11
2010,04,27,02,36,990.11
2010,04,27,02,37,990.11
2010,04,27,02,38,990.11
2010,04,27,02,39,990.11
2010,04,27,02,40,990.11
2010,04,27,02,41,990.11
2010,04,27,02,42,990.11
2010,04,27,02,43,990.11
2010,04,27,02,44,990.11
2010,04,27,02,45,990.11
2010,04,27,02,46,990.11
2010,04,27,02,47,990.11
2010,04,27,02,48,990.11
2010,04,27,02,49,990.11
2010,04,27,02,50,990.11
2010,04,27,02,51,990.11
2010,04,27,02,52,990.11
2010,04,27,02,53,990.11
2010,04,27,02,54,990.11
2010,04,27,02,55,990.11
2010,04,27,02,56,990.11
2010,04,27,02,57,990.11
2010,04,27,02,58,990.11
2010,04,27,02,59,990.11
2010,04,27,03,00,990.08
2010,04,27,03,01,990.08
2010,04,27,03,02,990.08
2010,04,27,03,03,990.08
2010,04,27,03,04,990.08
2010,04,27,03,05,990.08
2010,04,27,03,06,990.08
2010,04,27,03,07,990.08
2010,04,27,03,08,990.08
2010,04,27,03,09,990.08
2010,04,27,03,10,990.08
2010,04,27,03,11,990.08
2010,04,27,03,12,990.08
2010,04,27,03,13,990.08
2010,04,27,03,14,990.08
2010,04,27,03,15,989.88
2010,04,27,03,16,989.88
2010,04,27,03,17,989.88
2010,04,27,03,18,989.88
2010,04,27,03,19,989.88
2010,04,27,03,20,989.88
2010,04,27,03,21,989.88
2010,04,27,03,22,989.88
2010,04,27,03,23,989.88
2010,04,27,03,24,989.88
2010,04,27,03,25,989.88
2010,04,27,03,26,989.88
2010,04,27,03,27,989.88
2010,04,27,03,28,989.88
2010,04,27,03,29,989.88
2010,04,27,03,30,989.98
2010,04,27,03,31,989.98
2010,04,27,03,32,989.98
2010,04,27,03,33,989.98
2010,04,27,03,34,989.98
2010,04,27,03,35,989.98
2010,04,27,03,36,989.98
2010,04,27,03,37,989.98
2010,04,27,03,38,989.98
2010,04,27,03,39,989.98
2010,04,27,03,40,989.98
2010,04,27,03,41,989.98
2010,04,27,03,42,989.98
2010,04,27,03,43,989.98
2010,04,27,03,44,989.98
2010,04,27,03,45,989.74
2010,04,27,03,46,989.74
2010,04,27,03,47,989.74
2010,04,27,03,48,989.74
2010,04,27,03,49,989.74
2010,04,27,03,50,989.74
2010,04,27,03,51,989.74
2010,04,27,03,52,989.74
2010,04,27,03,53,989.74
2010,04,27,03,54,989.74
2010,04,27,03,55,989.74
2010,04,27,03,56,989.74
2010,04,27,03,57,989.74
2010,04,27,03,58,989.74
2010,04,27,03,59,989.74
2010,04,27,04,00,989.94
2010,04,27,04,01,989.94
2010,04,27,04,02,989.94
2010,04,27,04,03,989.94
2010,04,27,04,04,989.94
2010,04,27,04,05,989.94
2010,04,27,04,06,989.94
2010,04,27,04,07,989.94
2010,04,27,04,08,989.94
2010,04,27,04,09,989.94
2010,04,27,04,10,989.94
2010,04,27,04,11,989.94
2010,04,27,04,12,989.94
2010,04,27,04,13,989.94
2010,04,27,04,14,989.95
2010,04,27,04,15,990.11
2010,04,27,04,16,990.11
2010,04,27,04,17,990.11
2010,04,27,04,18,990.11
2010,04,27,04,19,990.11
2010,04,27,04,20,990.11
2010,04,27,04,21,990.11
2010,04,27,04,22,990.11
2010,04,27,04,23,990.11
2010,04,27,04,24,990.11
2010,04,27,04,25,990.11
2010,04,27,04,26,990.11
2010,04,27,04,27,990.11
2010,04,27,04,28,990.11
2010,04,27,04,29,990.11
2010,04,27,04,30,990.11
2010,04,27,04,31,990.11
2010,04,27,04,32,990.11
2010,04,27,04,33,990.11
2010,04,27,04,34,990.11
2010,04,27,04,35,990.11
2010,04,27,04,36,990.11
2010,04,27,04,37,990.11
2010,04,27,04,38,990.11
2010,04,27,04,39,990.11
2010,04,27,04,40,990.11
2010,04,27,04,41,990.11
2010,04,27,04,42,990.11
2010,04,27,04,43,990.11
2010,04,27,04,44,990.11
2010,04,27,04,45,990.21
2010,04,27,04,46,990.21
2010,04,27,04,47,990.21
2010,04,27,04,48,990.21
2010,04,27,04,49,990.21
2010,04,27,04,50,990.21
2010,04,27,04,51,990.21
2010,04,27,04,52,990.21
2010,04,27,04,53,990.21
2010,04,27,04,54,990.21
2010,04,27,04,55,990.21
2010,04,27,04,56,990.21
2010,04,27,04,57,990.21
2010,04,27,04,58,990.21
2010,04,27,04,59,990.21
2010,04,27,05,00,990.65
2010,04,27,05,01,990.65
2010,04,27,05,02,990.65
2010,04,27,05,03,990.65
2010,04,27,05,04,990.65
2010,04,27,05,05,990.65
2010,04,27,05,06,990.65
2010,04,27,05,07,990.65
2010,04,27,05,08,990.65
2010,04,27,05,09,990.65
2010,04,27,05,10,990.65
2010,04,27,05,11,990.65
2010,04,27,05,12,990.65
2010,04,27,05,13,990.65
2010,04,27,05,14,990.66
2010,04,27,05,15,990.79
2010,04,27,05,16,990.79
2010,04,27,05,17,990.79
2010,04,27,05,18,990.79
2010,04,27,05,19,990.79
2010,04,27,05,20,990.79
2010,04,27,05,21,990.79
2010,04,27,05,22,990.79
2010,04,27,05,23,990.79
2010,04,27,05,24,990.79
2010,04,27,05,25,990.79
2010,04,27,05,26,990.79
2010,04,27,05,27,990.79
2010,04,27,05,28,990.79
2010,04,27,05,29,990.79
2010,04,27,05,30,990.76
2010,04,27,05,31,990.76
2010,04,27,05,32,990.76
2010,04,27,05,33,990.76
2010,04,27,05,34,990.76
2010,04,27,05,35,990.76
2010,04,27,05,36,990.76
2010,04,27,05,37,990.76
2010,04,27,05,38,990.76
2010,04,27,05,39,990.76
2010,04,27,05,40,990.76
2010,04,27,05,41,990.76
2010,04,27,05,42,990.76
2010,04,27,05,43,990.76
2010,04,27,05,44,990.77
2010,04,27,05,45,990.96
2010,04,27,05,46,990.96
2010,04,27,05,47,990.96
2010,04,27,05,48,990.96
2010,04,27,05,49,990.96
2010,04,27,05,50,990.96
2010,04,27,05,51,990.96
2010,04,27,05,52,990.96
2010,04,27,05,53,990.96
2010,04,27,05,54,990.96
2010,04,27,05,55,990.96
2010,04,27,05,56,990.96
2010,04,27,05,57,990.96
2010,04,27,05,58,990.96
2010,04,27,05,59,990.96
2010,04,27,06,00,991.06
2010,04,27,06,01,991.06
2010,04,27,06,02,991.06
2010,04,27,06,03,991.06
2010,04,27,06,04,991.06
2010,04,27,06,05,991.06
2010,04,27,06,06,991.06
2010,04,27,06,07,991.06
2010,04,27,06,08,991.06
2010,04,27,06,09,991.06
2010,04,27,06,10,991.06
2010,04,27,06,11,991.06
2010,04,27,06,12,991.06
2010,04,27,06,13,991.06
2010,04,27,06,14,991.07
2010,04,27,06,15,991.23
2010,04,27,06,16,991.23
2010,04,27,06,17,991.23
2010,04,27,06,18,991.23
2010,04,27,06,19,991.23
2010,04,27,06,20,991.23
2010,04,27,06,21,991.23
2010,04,27,06,22,991.23
2010,04,27,06,23,991.23
2010,04,27,06,24,991.23
2010,04,27,06,25,991.23
2010,04,27,06,26,991.23
2010,04,27,06,27,991.23
2010,04,27,06,28,991.23
2010,04,27,06,29,991.25
2010,04,27,06,30,991.70
2010,04,27,06,31,991.70
2010,04,27,06,32,991.70
2010,04,27,06,33,991.70
2010,04,27,06,34,991.70
2010,04,27,06,35,991.70
2010,04,27,06,36,991.70
2010,04,27,06,37,991.70
2010,04,27,06,38,991.70
2010,04,27,06,39,991.70
2010,04,27,06,40,991.70
2010,04,27,06,41,991.70
2010,04,27,06,42,991.70
2010,04,27,06,43,991.70
2010,04,27,06,44,991.70
2010,04,27,06,45,991.98
2010,04,27,06,46,991.98
2010,04,27,06,47,991.98
2010,04,27,06,48,991.98
2010,04,27,06,49,991.98
2010,04,27,06,50,991.98
2010,04,27,06,51,991.98
2010,04,27,06,52,991.98
2010,04,27,06,53,991.98
2010,04,27,06,54,991.98
2010,04,27,06,55,991.98
2010,04,27,06,56,991.98
2010,04,27,06,57,991.98
2010,04,27,06,58,991.98
2010,04,27,06,59,991.98
2010,04,27,07,00,991.94
2010,04,27,07,01,991.94
2010,04,27,07,02,991.94
2010,04,27,07,03,991.94
2010,04,27,07,04,991.94
2010,04,27,07,05,991.94
2010,04,27,07,06,991.94
2010,04,27,07,07,991.94
2010,04,27,07,08,991.94
2010,04,27,07,09,991.94
2010,04,27,07,10,991.94
2010,04,27,07,11,991.94
2010,04,27,07,12,991.94
2010,04,27,07,13,991.94
2010,04,27,07,14,991.96
2010,04,27,07,15,992.25
2010,04,27,07,16,992.25
2010,04,27,07,17,992.25
2010,04,27,07,18,992.25
2010,04,27,07,19,992.25
2010,04,27,07,20,992.25
2010,04,27,07,21,992.25
2010,04,27,07,22,992.25
2010,04,27,07,23,992.25
2010,04,27,07,24,992.25
2010,04,27,07,25,992.25
2010,04,27,07,26,992.25
2010,04,27,07,27,992.25
2010,04,27,07,28,992.25
2010,04,27,07,29,992.26
2010,04,27,07,30,992.55
2010,04,27,07,31,992.55
2010,04,27,07,32,992.55
2010,04,27,07,33,992.55
2010,04,27,07,34,992.55
2010,04,27,07,35,992.55
2010,04,27,07,36,992.55
2010,04,27,07,37,992.55
2010,04,27,07,38,992.55
2010,04,27,07,39,992.55
2010,04,27,07,40,992.55
2010,04,27,07,41,992.55
2010,04,27,07,42,992.55
2010,04,27,07,43,992.55
2010,04,27,07,44,992.55
2010,04,27,07,45,992.62
2010,04,27,07,46,992.62
2010,04,27,07,47,992.62
2010,04,27,07,48,992.62
2010,04,27,07,49,992.62
2010,04,27,07,50,992.62
2010,04,27,07,51,992.62
2010,04,27,07,52,992.62
2010,04,27,07,53,992.62
2010,04,27,07,54,992.62
2010,04,27,07,55,992.62
2010,04,27,07,56,992.62
2010,04,27,07,57,992.62
2010,04,27,07,58,992.62
2010,04,27,07,59,992.63
2010,04,27,08,00,992.75
2010,04,27,08,01,992.75
2010,04,27,08,02,992.75
2010,04,27,08,03,992.75
2010,04,27,08,04,992.75
2010,04,27,08,05,992.75
2010,04,27,08,06,992.75
2010,04,27,08,07,992.75
2010,04,27,08,08,992.75
2010,04,27,08,09,992.75
2010,04,27,08,10,992.75
2010,04,27,08,11,992.75
2010,04,27,08,12,992.75
2010,04,27,08,13,992.75
2010,04,27,08,14,992.75
2010,04,27,08,15,992.79
2010,04,27,08,16,992.79
2010,04,27,08,17,992.79
2010,04,27,08,18,992.79
2010,04,27,08,19,992.79
2010,04,27,08,20,992.79
2010,04,27,08,21,992.79
2010,04,27,08,22,992.79
2010,04,27,08,23,992.79
2010,04,27,08,24,992.79
2010,04,27,08,25,992.79
2010,04,27,08,26,992.79
2010,04,27,08,27,992.79
2010,04,27,08,28,992.79
2010,04,27,08,29,992.79
2010,04,27,08,30,992.89
2010,04,27,08,31,992.89
2010,04,27,08,32,992.89
2010,04,27,08,33,992.89
2010,04,27,08,34,992.89
2010,04,27,08,35,992.89
2010,04,27,08,36,992.89
2010,04,27,08,37,992.89
2010,04,27,08,38,992.89
2010,04,27,08,39,992.89
2010,04,27,08,40,992.89
2010,04,27,08,41,992.89
2010,04,27,08,42,992.89
2010,04,27,08,43,992.89
2010,04,27,08,44,992.89
2010,04,27,08,45,992.92
2010,04,27,08,46,992.92
2010,04,27,08,47,992.92
2010,04,27,08,48,992.92
2010,04,27,08,49,992.92
2010,04,27,08,50,992.92
2010,04,27,08,51,992.92
2010,04,27,08,52,992.92
2010,04,27,08,53,992.92
2010,04,27,08,54,992.92
2010,04,27,08,55,992.92
2010,04,27,08,56,992.92
2010,04,27,08,57,992.92
2010,04,27,08,58,992.92
2010,04,27,08,59,992.92
2010,04,27,09,00,992.89
2010,04,27,09,01,992.89
2010,04,27,09,02,992.89
2010,04,27,09,03,992.89
2010,04,27,09,04,992.89
2010,04,27,09,05,992.89
2010,04,27,09,06,992.89
2010,04,27,09,07,992.89
2010,04,27,09,08,992.89
2010,04,27,09,09,992.89
2010,04,27,09,10,992.89
2010,04,27,09,11,992.89
2010,04,27,09,12,992.89
2010,04,27,09,13,992.89
2010,04,27,09,14,992.89
2010,04,27,09,15,992.89
2010,04,27,09,16,992.89
2010,04,27,09,17,992.89
2010,04,27,09,18,992.89
2010,04,27,09,19,992.89
2010,04,27,09,20,992.89
2010,04,27,09,21,992.89
2010,04,27,09,22,992.89
2010,04,27,09,23,992.89
2010,04,27,09,24,992.89
2010,04,27,09,25,992.89
2010,04,27,09,26,992.89
2010,04,27,09,27,992.89
2010,04,27,09,28,992.89
2010,04,27,09,29,992.89
2010,04,27,09,30,992.86
2010,04,27,09,31,992.86
2010,04,27,09,32,992.86
2010,04,27,09,33,992.86
2010,04,27,09,34,992.86
2010,04,27,09,35,992.86
2010,04,27,09,36,992.86
2010,04,27,09,37,992.86
2010,04,27,09,38,992.86
2010,04,27,09,39,992.86
2010,04,27,09,40,992.86
2010,04,27,09,41,992.86
2010,04,27,09,42,992.86
2010,04,27,09,43,992.86
2010,04,27,09,44,992.86
2010,04,27,09,45,992.75
2010,04,27,09,46,992.75
2010,04,27,09,47,992.75
2010,04,27,09,48,992.75
2010,04,27,09,49,992.75
2010,04,27,09,50,992.75
2010,04,27,09,51,992.75
2010,04,27,09,52,992.75
2010,04,27,09,53,992.75
2010,04,27,09,54,992.75
2010,04,27,09,55,992.75
2010,04,27,09,56,992.75
2010,04,27,09,57,992.75
2010,04,27,09,58,992.75
2010,04,27,09,59,992.75
2010,04,27,10,00,992.75
2010,04,27,10,01,992.75
2010,04,27,10,02,992.75
2010,04,27,10,03,992.75
2010,04,27,10,04,992.75
2010,04,27,10,05,992.75
2010,04,27,10,06,992.75
2010,04,27,10,07,992.75
2010,04,27,10,08,992.75
2010,04,27,10,09,992.75
2010,04,27,10,10,992.75
2010,04,27,10,11,992.75
2010,04,27,10,12,992.75
2010,04,27,10,13,992.75
2010,04,27,10,14,992.75
2010,04,27,10,15,992.72
2010,04,27,10,16,992.72
2010,04,27,10,17,992.72
2010,04,27,10,18,992.72
2010,04,27,10,19,992.72
2010,04,27,10,20,992.72
2010,04,27,10,21,992.72
2010,04,27,10,22,992.72
2010,04,27,10,23,992.72
2010,04,27,10,24,992.72
2010,04,27,10,25,992.72
2010,04,27,10,26,992.72
2010,04,27,10,27,992.72
2010,04,27,10,28,992.72
2010,04,27,10,29,992.72
2010,04,27,10,30,992.72
2010,04,27,10,31,992.72
2010,04,27,10,32,992.72
2010,04,27,10,33,992.72
2010,04,27,10,34,992.72
2010,04,27,10,35,992.72
2010,04,27,10,36,992.72
2010,04,27,10,37,992.72
2010,04,27,10,38,992.72
2010,04,27,10,39,992.72
2010,04,27,10,40,992.72
2010,04,27,10,41,992.72
2010,04,27,10,42,992.72
2010,04,27,10,43,992.72
2010,04,27,10,44,992.72
2010,04,27,10,45,992.69
2010,04,27,10,46,992.69
2010,04,27,10,47,992.69
2010,04,27,10,48,992.69
2010,04,27,10,49,992.69
2010,04,27,10,50,992.69
2010,04,27,10,51,992.69
2010,04,27,10,52,992.69
2010,04,27,10,53,992.69
2010,04,27,10,54,992.69
2010,04,27,10,55,992.69
2010,04,27,10,56,992.69
2010,04,27,10,57,992.69
2010,04,27,10,58,992.69
2010,04,27,10,59,992.69
2010,04,27,11,00,992.69
2010,04,27,11,01,992.69
2010,04,27,11,02,992.69
2010,04,27,11,03,992.69
2010,04,27,11,04,992.69
2010,04,27,11,05,992.69
2010,04,27,11,06,992.69
2010,04,27,11,07,992.69
2010,04,27,11,08,992.69
2010,04,27,11,09,992.69
2010,04,27,11,10,992.69
2010,04,27,11,11,992.69
2010,04,27,11,12,992.69
2010,04,27,11,13,992.69
2010,04,27,11,14,992.69
2010,04,27,11,15,992.62
2010,04,27,11,16,992.62
2010,04,27,11,17,992.62
2010,04,27,11,18,992.62
2010,04,27,11,19,992.62
2010,04,27,11,20,992.62
2010,04,27,11,21,992.62
2010,04,27,11,22,992.62
2010,04,27,11,23,992.62
2010,04,27,11,24,992.62
2010,04,27,11,25,992.62
2010,04,27,11,26,992.62
2010,04,27,11,27,992.62
2010,04,27,11,28,992.62
2010,04,27,11,29,992.62
2010,04,27,11,30,992.65
2010,04,27,11,31,992.65
2010,04,27,11,32,992.65
2010,04,27,11,33,992.65
2010,04,27,11,34,992.65
2010,04,27,11,35,992.65
2010,04,27,11,36,992.65
2010,04,27,11,37,992.65
2010,04,27,11,38,992.65
2010,04,27,11,39,992.65
2010,04,27,11,40,992.65
2010,04,27,11,41,992.65
2010,04,27,11,42,992.65
2010,04,27,11,43,992.65
2010,04,27,11,44,992.65
2010,04,27,11,45,992.62
2010,04,27,11,46,992.62
2010,04,27,11,47,992.62
2010,04,27,11,48,992.62
2010,04,27,11,49,992.62
2010,04,27,11,50,992.62
2010,04,27,11,51,992.62
2010,04,27,11,52,992.62
2010,04,27,11,53,992.62
2010,04,27,11,54,992.62
2010,04,27,11,55,992.62
2010,04,27,11,56,992.62
2010,04,27,11,57,992.62
2010,04,27,11,58,992.62
2010,04,27,11,59,992.62
2010,04,27,12,00,992.58
2010,04,27,12,01,992.58
2010,04,27,12,02,992.58
2010,04,27,12,03,992.58
2010,04,27,12,04,992.58
2010,04,27,12,05,992.58
2010,04,27,12,06,992.58
2010,04,27,12,07,992.58
2010,04,27,12,08,992.58
2010,04,27,12,09,992.58
2010,04,27,12,10,992.58
2010,04,27,12,11,992.58
2010,04,27,12,12,992.58
2010,04,27,12,13,992.58
2010,04,27,12,14,992.58
2010,04,27,12,15,992.58
2010,04,27,12,16,992.58
2010,04,27,12,17,992.58
2010,04,27,12,18,992.58
2010,04,27,12,19,992.58
2010,04,27,12,20,992.58
2010,04,27,12,21,992.58
2010,04,27,12,22,992.58
2010,04,27,12,23,992.58
2010,04,27,12,24,992.58
2010,04,27,12,25,992.58
2010,04,27,12,26,992.58
2010,04,27,12,27,992.58
2010,04,27,12,28,992.58
2010,04,27,12,29,992.58
2010,04,27,12,30,992.35
2010,04,27,12,31,992.35
2010,04,27,12,32,992.35
2010,04,27,12,33,992.35
2010,04,27,12,34,992.35
2010,04,27,12,35,992.35
2010,04,27,12,36,992.35
2010,04,27,12,37,992.35
2010,04,27,12,38,992.35
2010,04,27,12,39,992.35
2010,04,27,12,40,992.35
2010,04,27,12,41,992.35
2010,04,27,12,42,992.35
2010,04,27,12,43,992.35
2010,04,27,12,44,992.35
2010,04,27,12,45,992.42
2010,04,27,12,46,992.42
2010,04,27,12,47,992.42
2010,04,27,12,48,992.42
2010,04,27,12,49,992.42
2010,04,27,12,50,992.42
2010,04,27,12,51,992.42
2010,04,27,12,52,992.42
2010,04,27,12,53,992.42
2010,04,27,12,54,992.42
2010,04,27,12,55,992.42
2010,04,27,12,56,992.42
2010,04,27,12,57,992.42
2010,04,27,12,58,992.42
2010,04,27,12,59,992.42
2010,04,27,13,00,992.72
2010,04,27,13,01,992.72
2010,04,27,13,02,992.72
2010,04,27,13,03,992.72
2010,04,27,13,04,992.72
2010,04,27,13,05,992.72
2010,04,27,13,06,992.72
2010,04,27,13,07,992.72
2010,04,27,13,08,992.72
2010,04,27,13,09,992.72
2010,04,27,13,10,992.72
2010,04,27,13,11,992.72
2010,04,27,13,12,992.72
2010,04,27,13,13,992.72
2010,04,27,13,14,992.72
2010,04,27,13,15,992.72
2010,04,27,13,16,992.72
2010,04,27,13,17,992.72
2010,04,27,13,18,992.72
2010,04,27,13,19,992.72
2010,04,27,13,20,992.72
2010,04,27,13,21,992.72
2010,04,27,13,22,992.72
2010,04,27,13,23,992.72
2010,04,27,13,24,992.72
2010,04,27,13,25,992.72
2010,04,27,13,26,992.72
2010,04,27,13,27,992.72
2010,04,27,13,28,992.72
2010,04,27,13,29,992.72
2010,04,27,13,30,992.82
2010,04,27,13,31,992.82
2010,04,27,13,32,992.82
2010,04,27,13,33,992.82
2010,04,27,13,34,992.82
2010,04,27,13,35,992.82
2010,04,27,13,36,992.82
2010,04,27,13,37,992.82
2010,04,27,13,38,992.82
2010,04,27,13,39,992.82
2010,04,27,13,40,992.82
2010,04,27,13,41,992.82
2010,04,27,13,42,992.82
2010,04,27,13,43,992.82
2010,04,27,13,44,992.82
2010,04,27,13,45,992.96
2010,04,27,13,46,992.96
2010,04,27,13,47,992.96
2010,04,27,13,48,992.96
2010,04,27,13,49,992.96
2010,04,27,13,50,992.96
2010,04,27,13,51,992.96
2010,04,27,13,52,992.96
2010,04,27,13,53,992.96
2010,04,27,13,54,992.96
2010,04,27,13,55,992.96
2010,04,27,13,56,992.96
2010,04,27,13,57,992.96
2010,04,27,13,58,992.96
2010,04,27,13,59,992.96
2010,04,27,14,00,992.82
2010,04,27,14,01,992.82
2010,04,27,14,02,992.82
2010,04,27,14,03,992.82
2010,04,27,14,04,992.82
2010,04,27,14,05,992.82
2010,04,27,14,06,992.82
2010,04,27,14,07,992.82
2010,04,27,14,08,992.82
2010,04,27,14,09,992.82
2010,04,27,14,10,992.82
2010,04,27,14,11,992.82
2010,04,27,14,12,992.82
2010,04,27,14,13,992.82
2010,04,27,14,14,992.82
2010,04,27,14,15,992.98
2010,04,27,14,16,992.99
2010,04,27,14,17,992.99
2010,04,27,14,18,992.99
2010,04,27,14,19,992.99
2010,04,27,14,20,992.99
2010,04,27,14,21,992.99
2010,04,27,14,22,992.99
2010,04,27,14,23,992.99
2010,04,27,14,24,992.99
2010,04,27,14,25,992.99
2010,04,27,14,26,992.99
2010,04,27,14,27,992.99
2010,04,27,14,28,992.99
2010,04,27,14,29,992.99
2010,04,27,14,30,993.03
2010,04,27,14,31,993.03
2010,04,27,14,32,993.03
2010,04,27,14,33,993.03
2010,04,27,14,34,993.03
2010,04,27,14,35,993.03
2010,04,27,14,36,993.03
2010,04,27,14,37,993.03
2010,04,27,14,38,993.03
2010,04,27,14,39,993.03
2010,04,27,14,40,993.03
2010,04,27,14,41,993.03
2010,04,27,14,42,993.03
2010,04,27,14,43,993.03
2010,04,27,14,44,993.03
2010,04,27,14,45,993.25
2010,04,27,14,46,993.26
2010,04,27,14,47,993.26
2010,04,27,14,48,993.26
2010,04,27,14,49,993.26
2010,04,27,14,50,993.26
2010,04,27,14,51,993.26
2010,04,27,14,52,993.26
2010,04,27,14,53,993.26
2010,04,27,14,54,993.26
2010,04,27,14,55,993.26
2010,04,27,14,56,993.26
2010,04,27,14,57,993.26
2010,04,27,14,58,993.26
2010,04,27,14,59,993.26
2010,04,27,15,00,993.30
2010,04,27,15,01,993.30
2010,04,27,15,02,993.30
2010,04,27,15,03,993.30
2010,04,27,15,04,993.30
2010,04,27,15,05,993.30
2010,04,27,15,06,993.30
2010,04,27,15,07,993.30
2010,04,27,15,08,993.30
2010,04,27,15,09,993.30
2010,04,27,15,10,993.30
2010,04,27,15,11,993.30
2010,04,27,15,12,993.30
2010,04,27,15,13,993.30
2010,04,27,15,14,993.30
2010,04,27,15,15,993.36
2010,04,27,15,16,993.36
2010,04,27,15,17,993.36
2010,04,27,15,18,993.36
2010,04,27,15,19,993.36
2010,04,27,15,20,993.36
2010,04,27,15,21,993.36
2010,04,27,15,22,993.36
2010,04,27,15,23,993.36
2010,04,27,15,24,993.36
2010,04,27,15,25,993.36
2010,04,27,15,26,993.36
2010,04,27,15,27,993.36
2010,04,27,15,28,993.36
2010,04,27,15,29,993.36
2010,04,27,15,30,993.59
2010,04,27,15,31,993.60
2010,04,27,15,32,993.60
2010,04,27,15,33,993.60
2010,04,27,15,34,993.60
2010,04,27,15,35,993.60
2010,04,27,15,36,993.60
2010,04,27,15,37,993.60
2010,04,27,15,38,993.60
2010,04,27,15,39,993.60
2010,04,27,15,40,993.60
2010,04,27,15,41,993.60
2010,04,27,15,42,993.60
2010,04,27,15,43,993.60
2010,04,27,15,44,993.60
2010,04,27,15,45,993.87
2010,04,27,15,46,993.87
2010,04,27,15,47,993.87
2010,04,27,15,48,993.87
2010,04,27,15,49,993.87
2010,04,27,15,50,993.87
2010,04,27,15,51,993.87
2010,04,27,15,52,993.87
2010,04,27,15,53,993.87
2010,04,27,15,54,993.87
2010,04,27,15,55,993.87
2010,04,27,15,56,993.87
2010,04,27,15,57,993.87
2010,04,27,15,58,993.87
2010,04,27,15,59,993.87
2010,04,27,16,00,993.84
2010,04,27,16,01,993.84
2010,04,27,16,02,993.84
2010,04,27,16,03,993.84
2010,04,27,16,04,993.84
2010,04,27,16,05,993.84
2010,04,27,16,06,993.84
2010,04,27,16,07,993.84
2010,04,27,16,08,993.84
2010,04,27,16,09,993.84
2010,04,27,16,10,993.84
2010,04,27,16,11,993.84
2010,04,27,16,12,993.84
2010,04,27,16,13,993.84
2010,04,27,16,14,993.84
2010,04,27,16,15,994.22
2010,04,27,16,16,994.24
2010,04,27,16,17,994.24
2010,04,27,16,18,994.24
2010,04,27,16,19,994.24
2010,04,27,16,20,994.24
2010,04,27,16,21,994.24
2010,04,27,16,22,994.24
2010,04,27,16,23,994.24
2010,04,27,16,24,994.24
2010,04,27,16,25,994.24
2010,04,27,16,26,994.24
2010,04,27,16,27,994.24
2010,04,27,16,28,994.24
2010,04,27,16,29,994.24
2010,04,27,16,30,994.38
2010,04,27,16,31,994.38
2010,04,27,16,32,994.38
2010,04,27,16,33,994.38
2010,04,27,16,34,994.38
2010,04,27,16,35,994.38
2010,04,27,16,36,994.38